Regional Weather Roundup
Issued by NWS

Home | Current Version | Previous Version | Graphics & Text | Print | Product List | Glossary On
Versions: 1 2 3 4 5 6 7 8 9 10 11 12 13 14 15 16 17 18 19 20 21 22 23 24 25 26 27 28 29 30 31 32 33 34 35 36 37 38 39 40 41 42 43 44 45 46 47 48 49 50
000
ASUS45 KPSR 252100
RWRAZ

PRELIMINARY ARIZONA REGIONAL HOURLY WEATHER ROUNDUP
NATIONAL WEATHER SERVICE PHOENIX AZ
200 PM MST SAT OCT 25 2014

NOTE: FAIR INDICATES FEW OR NO CLOUDS BELOW 12,000 FEET WITH NO
SIGNIFICANT WEATHER AND/OR OBSTRUCTIONS TO VISIBILITY.

AZZ001>003-036-252200-
NORTHWEST ARIZONA

CITY           SKY/WX    TMP DP  RH WIND       PRES   REMARKS
KINGMAN        MOSUNNY   80  42  25 S15G24    30.10F
$$

AZZ004>008-015-016-018-252200-
NORTH CENTRAL ARIZONA

CITY           SKY/WX    TMP DP  RH WIND       PRES   REMARKS
GRAND CANYON   PTSUNNY   70  40  33 SW16G25   30.28F
PRESCOTT       MOSUNNY   78  45  30 SW13      30.21F
FLAGSTAFF      PTSUNNY   65  42  43 SW10G22   30.33F
PAYSON         PTSUNNY   77  45  31 VRB7      30.25F
PAGE           SUNNY     77  35  21 N6        30.12F
$$

AZZ009>014-017-252200-
NORTHEAST ARIZONA

CITY           SKY/WX    TMP DP  RH WIND       PRES   REMARKS
WINSLOW        NOT AVBL
SAINT JOHNS    SUNNY     79  36  21 W17       30.23F
WINDOW ROCK    SUNNY     73  35  25 W17G24    30.31F
$$

AZZ023-252200-
GREATER PHOENIX AREA

CITY           SKY/WX    TMP DP  RH WIND       PRES   REMARKS
PHOENIX        MOSUNNY   92  47  21 VRB3      29.94F
GLENDALE       MOSUNNY   91  48  22 CALM      29.96F
DEER VALLEY    MOSUNNY   90  47  22 CALM      29.97F
SCOTTSDALE     SUNNY     92  49  22 CALM      29.98F
MESA-FALCON    MOSUNNY   93  50  22 SW7       29.96F
MESA-GATEWAY   MOSUNNY   91  52  25 W6        29.98F
CHANDLER       MOSUNNY   91  52  25 W7        29.96F
$$

AZZ027-028-252200-
SOUTHWEST MARICOPA COUNTY AND PINAL COUNTY

CITY           SKY/WX    TMP DP  RH WIND       PRES   REMARKS
CASA GRANDE    SUNNY     93  48  21 CALM      29.97F
$$

AZZ503-504-507>509-252200-
SOUTHEAST ARIZONA

CITY           SKY/WX    TMP DP  RH WIND       PRES   REMARKS
TUCSON         MOSUNNY   93  46  19 SE6       30.05F
DAVIS-MONTHAN  SUNNY     93  48  21 S8G17     30.03F
RYAN FIELD       N/A     93  48  21 SE5       30.03F
NOGALES        SUNNY     88  48  25 SW12G20   30.13F
SIERRA VISTA   MOSUNNY   86  45  23 W8        30.19F
SAFFORD        SUNNY     86  44  23 SW3       30.09F
$$

AZZ020-021-025-026-031-252200-
SOUTHWEST ARIZONA

CITY           SKY/WX    TMP DP  RH WIND       PRES   REMARKS
YUMA           SUNNY     96  44  16 SE6       29.90F
$$

CAZ031-033-041-043-047-048-061-252200-
SOUTHERN CALIFORNIA

CITY           SKY/WX    TMP DP  RH WIND       PRES   REMARKS
DOWNTOWN L.A.  MOSUNNY   78  53  41 CALM      30.01F
L.A. AIRPORT   MOSUNNY   73  57  57 W13       30.03F
SAN DIEGO      MOSUNNY   75  63  66 NW12      30.04S
BURBANK        MOSUNNY   81  39  22 S5        30.02F
ONTARIO        PTSUNNY   86  36  16 W14       30.02F
RIVERSIDE      PTSUNNY   84  40  21 W12       30.01F
PALM SPRINGS   SUNNY     94  47  20 E6        29.93F
EL CENTRO NAS  MOSUNNY   95  47  19 VRB3      29.89F
IMPERIAL       SUNNY     95  48  20 CALM      29.89F
BLYTHE         MOSUNNY   92  45  19 E6        29.92F
$$

NVZ020-UTZ003-252200-
SOUTHERN NEVADA-UTAH

CITY           SKY/WX    TMP DP  RH WIND       PRES   REMARKS
LAS VEGAS      NOT AVBL
SALT LAKE CITY PTSUNNY   78  32  18 S22G30    29.96F
$$

NMZ009-TXZ055-252200-
NEW MEXICO-WEST TEXAS

CITY           SKY/WX    TMP DP  RH WIND       PRES   REMARKS
ALBUQUERQUE    SUNNY     76  36  23 VRB7      30.23F
EL PASO        SUNNY     84  41  21 CALM      30.16F
$$


........................KEY........................
SKY/WX - SKY CONDITION/WEATHER
TMP    - TEMPERATURE IN FAHRENHEIT
DP     - DEW POINT IN FAHRENHEIT
RH     - RELATIVE HUMIDITY IN PERCENT
WIND   - DIRECTION AND SPEED IN MILES PER HOUR (MPH)
VRB    - VARIABLE WIND DIRECTION
PRES   - MEAN SEA LEVEL PRESSURE IN INCHES OF MERCURY
         F - FALLING PRESSURE   R - RISING PRESSURE
         S - STEADY PRESSURE
VSB    - VISIBILITY IN MILES
HX     - HEAT INDEX IN FAHRENHEIT
WCI    - WIND CHILL INDEX IN FAHRENHEIT
TC     - TEMPERATURE IN CELSIUS WHICH IS ALSO KNOWN AS
         TEMPERATURE IN CENTIGRADE
AFB    - AIR FORCE BASE
         LUKE AFB IS LUKE AIR FORCE BASE
         DAVIS-MONTHAN IS DAVIS-MONTHAN AIR FORCE BASE
NAS    - NAVAL AIR STATION
         EL CENTRO NAS IS EL CENTRO NAVAL AIR STATION
N/A    - NOT AVAILABLE



USA.gov is the U.S. government's official web portal to all federal, state and local government web resources and services.